Regional Weather Roundup
Issued by NWS

Home | Current Version | Previous Version | Text Only | Print | Product List | Glossary Off
Versions: 1 2 3 4 5 6 7 8 9 10 11 12 13 14 15 16 17 18 19 20 21 22 23 24 25 26 27 28 29 30 31 32 33 34 35 36 37 38 39 40 41 42 43 44 45 46 47 48 49 50

000
ASUS43 KLOT 291012
RWRIL

ILLINOIS REGIONAL WEATHER ROUNDUP
NATIONAL WEATHER SERVICE CHICAGO/ROMEOVILLE IL
500 AM CDT SUN MAR 29 2015

NOTE: "FAIR" INDICATES FEW OR NO CLOUDS BELOW 12,000 FEET WITH NO
SIGNIFICANT WEATHER AND/OR OBSTRUCTIONS TO VISIBILITY.

* THESE STATIONS ARE NOT UNDER NWS QUALITY CONTROL. THEY ALSO MAY NOT
  REPORT WEATHER SUCH AS PRECIPITATION OR FOG.

ILZ001-002-007-009-015-016-024-291100-
NORTHWEST ILLINOIS

CITY           SKY/WX    TMP DP  RH WIND       PRES   REMARKS
MOLINE         CLEAR     33  18  53 S16G24    30.05F WCI  23
STERLING*      CLEAR     30  19  64 S7        30.10F WCI  23
SAVANNA*       PTCLDY    30  20  66 S12       30.07F WCI  21
$$

ILZ003-004-008-010-011-017-018-291100-
NORTH CENTRAL ILLINOIS

CITY           SKY/WX    TMP DP  RH WIND       PRES   REMARKS
ROCKFORD       PTCLDY    28  18  66 S14       30.12F WCI  17
FREEPORT*      PTCLDY    30  19  65 S15G23    30.10F WCI  19
ROCHELLE*      PTCLDY    27  19  72 S15       30.12F WCI  15
DE KALB*       PTCLDY    25  18  74 S13       30.13F WCI  13
PERU*          CLEAR     30  20  66 S14       30.15F WCI  20
$$

ILZ005-006-012>014-019>023-291100-
NORTHEAST ILLINOIS

CITY           SKY/WX    TMP DP  RH WIND       PRES   REMARKS
CHICAGO-OHARE  MOCLDY    27  15  61 S9        30.15F WCI  18
CHICAGO-MIDWAY MOCLDY    31  14  49 S13       30.17F WCI  21
AURORA         PTCLDY    28  16  60 S13       30.14F WCI  17
LANSING*       PTCLDY    27  15  61 S10       30.19F WCI  17
JOLIET*        PTCLDY    30  18  60 S6        30.18F WCI  24
WAUKEGAN       MOCLDY    29  13  51 S12       30.13F WCI  19
DUPAGE AIRPORT MOCLDY    27  16  63 S10       30.13F WCI  17
KANKAKEE*      CLEAR     29  18  62 S9        30.20F WCI  20
WHEELING       MOCLDY    28  13  53 S12       30.15F WCI  18
MORRIS*        PTCLDY    27  18  70 S10       30.16F WCI  17
ROMEOVILLE*    PTCLDY    27  17  66 S10       30.17F WCI  17
NORTHERLY ISL    N/A     30  15  53 S10         N/A  WCI  21
$$

LMZ740>746-291100-
SOUTHERN LAKE MICHIGAN

STATION/POSITION SKY/WX   TEMP    WIND        PRES    VSBY  WAVE
                          AIR SEA DIR/SP/G                  HT/PER
                          (F)     (DEG/KT/KT) (MB)    (MI)  (FT/S)
HARRISON CRIB              31     180/ 22/ 25   N/A
BURNHAM HARBOR             31     190/  8/ 12   N/A
BURNS HARBOR               28     180/ 12/ 19 1023.4F
MICHIGAN CITY              28     150/ 10/ 13   N/A
$$

ILZ025>027-034>036-040-047-049-050-058-095>099-291100-
WEST-CENTRAL ILLINOIS

CITY           SKY/WX    TMP DP  RH WIND       PRES   REMARKS
QUINCY         CLEAR     34  23  64 S14       30.08F WCI  25
GALESBURG*     CLEAR     30  21  70 SE12      30.10F WCI  20
MACOMB*        PTCLDY    31  22  69 S13       30.13F WCI  21
JACKSONVILLE*  PTCLDY    34  22  60 S12G17    30.15F WCI  26
PITTSFIELD*    CLEAR     32  24  71 SE9       30.14F WCI  25
$$

ILZ028>032-037-038-041>044-048-051>054-059>061-291100-
CENTRAL ILLINOIS

CITY           SKY/WX    TMP DP  RH WIND       PRES   REMARKS
PONTIAC        PTCLDY    29  21  71 S14       30.18F WCI  19
BLOOMINGTON    CLEAR     29  21  71 S16       30.18F WCI  17
DECATUR        PTCLDY    31  20  63 S13       30.21S WCI  21
PEORIA         PTCLDY    32  20  61 S14       30.15F WCI  22
LACON*         CLEAR     30  17  59 S7        30.15S WCI  23
LINCOLN*       CLEAR     32  23  70 S10       30.19F WCI  24
SPRINGFIELD    PTCLDY    33  21  61 S16       30.18F WCI  23
TAYLORVILLE    PTCLDY    32  21  64 S13       30.20S WCI  22
$$

ILZ033-039-045-046-055>057-062-063-291100-
EAST-CENTRAL ILLINOIS

CITY           SKY/WX    TMP DP  RH WIND       PRES   REMARKS
CHAMPAIGN      CLEAR     28  20  71 SE10      30.21F WCI  19
DANVILLE*      CLEAR     27  19  72 S6        30.21S WCI  20
RANTOUL*       CLEAR     28  22  78 SE8       30.21S WCI  20
MATTOON        PTCLDY    30  19  63 S10       30.22F WCI  21
PARIS*         PTCLDY    28  22  80 SE8       30.25F WCI  19
$$

ILZ079-100>102-291100-
SOUTHWEST ILLINOIS

CITY           SKY/WX    TMP DP  RH WIND       PRES   REMARKS
ALTON          CLEAR     32  17  54 SE8       30.20R WCI  24
BELLEVILLE     CLEAR     31  21  65 S8        30.20F WCI  24
CAHOKIA*       CLEAR     33  20  58 SE7       30.20S WCI  27
SPARTA*        CLEAR     30  19  64 SE7       30.22F WCI  23
$$

ILZ064>066-069>071-074>076-080>082-084>086-088>090-092>094-291100-
SOUTH-CENTRAL ILLINOIS

CITY           SKY/WX    TMP DP  RH WIND       PRES   REMARKS
CARBONDALE     CLEAR     30  18  60 SE6       30.24F WCI  24
CAIRO*         CLEAR     36  21  55 SE10      30.26F WCI  28
EFFINGHAM*     CLEAR     30  18  59 SE7       30.25F WCI  23
MARION         CLEAR     30  19  64 SE6       30.25F WCI  24
MT. VERNON     CLEAR     30  19  64 SE8       30.24F WCI  23
CENTRALIA*     CLEAR     31  20  64 SE8       30.23S WCI  23
SALEM*         CLEAR     33  20  59 SE7       30.23F WCI  27
METROPOLIS*    CLEAR     32  23  70 SE5       30.27F WCI  27
$$

ILZ067-068-072-073-078-083-087-091-291100-
SOUTHEAST ILLINOIS

CITY           SKY/WX    TMP DP  RH WIND       PRES   REMARKS
LAWRENCEVILLE  CLEAR     28  21  75 SE9       30.28F WCI  19
FLORA*         CLEAR     28  22  78 S5        30.26F WCI  22
FAIRFIELD*     CLEAR     31  22  67 SE6       30.25F WCI  25
HARRISBURG*    CLEAR     31  23  72 SE5       30.28F WCI  26
ROBINSON*      PTCLDY    27  21  78 SE6       30.28F WCI  20
CARMI*         CLEAR     28  23  80 SE8       30.27F WCI  20
$$

ABBREVIATIONS USED IN REMARKS
   TC - TEMPERATURE IN CELSIUS
  WCI - WIND CHILL INDEX
   HX - HEAT INDEX
  VSB - VISIBILITY
$$



USA.gov is the U.S. government's official web portal to all federal, state and local government web resources and services.